Time,TemperatureF,DewpointF,PressureIn,WindDirection,WindDirectionDegrees,WindSpeedMPH,WindSpeedGustMPH,Humidity,HourlyPrecipIn,Conditions,Clouds,dailyrainin,SolarRadiationWatts/m^2,SoftwareType,DateUTC
2014-03-01 00:50:00,42.0,39.0,-100.00,SW,216,3.0,6.0,90,0.00,,,-99.99,0.000000,,2014-03-01 07:50:00,
2014-03-01 00:52:00,47.0,39.0,-100.00,ESE,105,7.0,10.0,73,0.00,,,-99.99,0.000000,,2014-03-01 07:52:00,
2014-03-01 01:21:00,42.0,39.0,-100.00,SW,216,3.0,6.0,90,0.00,,,-99.99,0.000000,,2014-03-01 08:21:00,
2014-03-01 01:31:00,42.0,39.0,-100.00,SW,216,3.0,6.0,90,0.00,,,-99.99,0.000000,,2014-03-01 08:31:00,
2014-03-01 01:42:00,42.0,39.0,-100.00,SW,216,3.0,6.0,90,0.00,,,-99.99,0.000000,,2014-03-01 08:42:00,
2014-03-01 04:52:00,44.0,32.0,-100.00,ENE,66,14.0,23.0,64,0.00,,,-99.99,0.000000,,2014-03-01 11:52:00,
2014-03-01 05:50:00,44.0,30.0,-100.00,ENE,78,16.0,24.0,58,0.00,,,-99.99,0.000000,,2014-03-01 12:50:00,
2014-03-01 05:52:00,44.0,30.0,-100.00,ENE,65,13.0,19.0,58,0.00,,,-99.99,0.000000,,2014-03-01 12:52:00,
2014-03-01 06:21:00,44.0,30.0,-100.00,ENE,78,16.0,24.0,58,0.00,,,-99.99,0.000000,,2014-03-01 13:21:00,
2014-03-01 06:32:00,44.0,30.0,-100.00,ENE,78,16.0,24.0,58,0.00,,,-99.99,0.000000,,2014-03-01 13:32:00,
2014-03-01 06:42:00,44.0,30.0,-100.00,ENE,78,16.0,24.0,58,0.00,,,-99.99,0.000000,,2014-03-01 13:42:00,
2014-03-01 08:53:00,44.0,31.0,-100.00,NNE,28,19.0,30.0,59,0.00,,,-99.99,102.000000,,2014-03-01 15:53:00,
2014-03-01 09:53:00,45.0,31.0,-100.00,NE,52,12.0,17.0,58,0.00,,,-99.99,162.000000,,2014-03-01 16:53:00,
2014-03-01 10:50:00,47.0,29.0,-100.00,ENE,66,16.0,24.0,50,0.00,,,-99.99,288.000000,,2014-03-01 17:50:00,
2014-03-01 11:22:00,47.0,29.0,-100.00,ENE,66,16.0,24.0,50,0.00,,,-99.99,288.000000,,2014-03-01 18:22:00,
2014-03-01 11:32:00,47.0,29.0,-100.00,ENE,66,16.0,24.0,50,0.00,,,-99.99,288.000000,,2014-03-01 18:32:00,
2014-03-01 11:43:00,47.0,29.0,-100.00,ENE,66,16.0,24.0,50,0.00,,,-99.99,288.000000,,2014-03-01 18:43:00,
2014-03-01 15:50:00,51.0,24.0,-100.00,East,83,15.0,21.0,34,0.00,,,-99.99,504.000000,,2014-03-01 22:50:00,
2014-03-01 15:52:00,52.0,26.0,-100.00,East,83,13.0,20.0,37,0.00,,,-99.99,629.000000,,2014-03-01 22:52:00,
2014-03-01 16:22:00,51.0,24.0,-100.00,East,83,15.0,21.0,34,0.00,,,-99.99,504.000000,,2014-03-01 23:22:00,
2014-03-01 16:33:00,51.0,24.0,-100.00,East,83,15.0,21.0,34,0.00,,,-99.99,504.000000,,2014-03-01 23:33:00,
2014-03-01 16:42:00,51.0,24.0,-100.00,East,83,15.0,21.0,34,0.00,,,-99.99,504.000000,,2014-03-01 23:42:00,
2014-03-01 20:50:00,37.0,32.0,-100.00,East,93,4.0,6.0,82,0.00,,,-99.99,0.000000,,2014-03-02 03:50:00,
2014-03-01 21:02:00,-999.0,-99.9,-100.00,East,84,5.0,9.0,-999,0.00,,,-99.99,,,2014-03-02 04:02:00,
2014-03-01 21:23:00,37.0,32.0,-100.00,East,93,4.0,6.0,82,0.00,,,-99.99,0.000000,,2014-03-02 04:23:00,
2014-03-01 21:33:00,37.0,32.0,-100.00,East,93,4.0,6.0,82,0.00,,,-99.99,0.000000,,2014-03-02 04:33:00,
2014-03-01 21:43:00,37.0,32.0,-100.00,East,93,4.0,6.0,82,0.00,,,-99.99,0.000000,,2014-03-02 04:43:00,